Flag for Germany Weather past 2 weeks in Kaufbeuren, Bavaria, Germany

Now
45 °F

Quite cool.


Feels Like: 45 °F
Forecast: 38 / 56 °F
Wind: 2 mph from Southwest

Location: Altenstadt Airport

Current Time: Oct 25, 2014 at 11:13:47 PM

Latest Report: Oct 25, 2014 at 10:20 PM


Visibility: N/A

Pressure: 30.24 "Hg

Humidity: 100%

Dew point: 45 °F

Location of KaufbeurenLocation

Historic Weather in Kaufbeuren — Graph

°F

Kaufbeuren temperature yesterday

Maximum temperature yesterday: 46 °F (at 2:20 PM)
Minimum temperature yesterday: 32 °F (at 11:20 PM)
Average temperature yesterday: 41 °F

Past Weeks' High & Low Weather Summary

 TemperatureHumidityPressure
High72 °F (Oct 19, 2:20 PM)100% (Oct 11, 12:20 AM)30.27 "Hg (Oct 11, 12:20 AM)
Low30 °F (Oct 25, 4:20 AM)44% (Oct 19, 3:20 PM)29.68 "Hg (Oct 21, 8:20 PM)
Average51 °F88%30.02 "Hg
* Reported Oct 10 9:20 PM — Oct 25 9:20 PM, Kaufbeuren, Weather by CustomWeather, © 2014

Note: Actual official high and low records may vary slightly from our data, if they occured in-between our weather recording intervals... More about our weather records

Advertising

Kaufbeuren weather history for previous 24 hours

 ConditionsComfort  
Time TempWeatherWind HumidityBarometerVisibility
9:20 PM
Oct 25
45 °FQuite cool.3 mph100%30.21 "HgN/A
8:20 PM45 °FQuite cool.2 mph100%30.21 "HgN/A
7:20 PM45 °FQuite cool.2 mph100%30.21 "HgN/A
6:20 PM46 °FCool.2 mph93%30.18 "HgN/A
5:20 PM46 °FCool.3 mph100%30.18 "HgN/A
4:20 PM48 °FCool.5 mph87%30.15 "HgN/A
3:20 PM48 °FCool.1 mph87%30.15 "HgN/A
2:20 PM50 °FCool.5 mph76%30.15 "HgN/A
1:20 PM50 °FCool.2 mph76%30.15 "HgN/A
12:20 PM48 °FCool.2 mph76%30.15 "HgN/A
11:20 AM43 °FQuite cool.2 mph93%30.15 "HgN/A
10:20 AM39 °FChilly.1 mph93%30.12 "HgN/A
9:20 AM34 °FChilly.3 mph100%30.12 "HgN/A
8:20 AM34 °FChilly.2 mph100%30.12 "HgN/A
7:20 AM32 °FChilly.5 mph100%30.09 "HgN/A
6:20 AM30 °FChilly.3 mph100%30.09 "HgN/A
5:20 AM32 °FChilly.2 mph100%30.09 "HgN/A
4:20 AM30 °FChilly.5 mph100%30.09 "HgN/A
3:20 AM32 °FChilly.2 mph100%30.09 "HgN/A
2:20 AM32 °FChilly.5 mph100%30.12 "HgN/A
1:20 AM32 °FChilly.3 mph100%30.12 "HgN/A
12:20 AM32 °FChilly.5 mph100%30.12 "HgN/A
11:20 PM
Oct 24
32 °FChilly.3 mph100%30.12 "HgN/A
Weather by CustomWeather, © 2014

See weather overviewHow to use our weather pages